Zurück zum Katalog

CHINASAT 10R

AktivKommunikationGEO
NORAD 63075·PAYLOAD·🇨🇳 China

Gestartet Feb 22, 2025 von Xichang Satellite Launch Center

Loading…

TLE

AktuellSource: Space-Track

Epoche: Sep 14, 2026, 14:19 UTC

1 63075U 25036A   26257.59702777 -.00000360  00000-0  00000-0 0  9993
2 63075   0.0211 201.9231 0004682 330.7126 146.3855  1.00270133  5854

Verfolge CHINASAT 10R in Echtzeit mit AllMySat

Download on the App Store